User: anonymous   Login
Location: Cypress Hills Dark-Sky Preserve - CHICO
(49.6176°N, 110.2634°W)
Time: 10:45:31
(UTC-06:00)
Language:

SPOT 5 - Orbit

View from above orbital plane
View from above orbital plane
View from above satellite
View from above satellite

Ground track
Ground track

The orbit data is extracted from the following two-line orbital elements,

1 27421U 02021A   17206.25608679 +.00000094 +00000-0 +32609-4 0  9997
2 27421 098.4035 269.5872 0134605 211.6103 147.6957 14.51872825791198
Epoch (UTC): 25 July 2017 06:08:45
Eccentricity: 0.0134605
inclination: 98.4035°
perigee height: 624 km
apogee height: 815 km
right ascension of ascending node: 269.5872°
argument of perigee: 211.6103°
revolutions per day: 14.51872825
mean anomaly at epoch: 147.6957°
orbit number at epoch: 79119

The dashed part of the orbit path shows where the satellite is in the earth's shadow,  

DLR